When you browse on this site, cookies collect data to enhance your experience and personalize the content and advertising you see.
Visit our Privacy Policy to learn more. By continuing to use the site, you agree to this use of cookies and data.
  • In United Kingdom
  • List of Countries
  • For 7 days
  • Water Temperature
  • Satellite Maps
  • Weather Map
  • Weather Widgets
  • user-avatar
    Login

    Hourly Weather Irvadan

    Today, 16 June, Sunday

    Time Temperature Precipitation Wind Pressure Humidity
    00:00 +25°C° 0 mm 3 mps 723 mmHg 36%
    01:00 +25°C° 0 mm 3 mps 723 mmHg 38%
    02:00 +23°C° 0 mm 4 mps 723 mmHg 40%
    03:00 +24°C° 0 mm 3 mps 723 mmHg 41%
    04:00 +22°C° 0 mm 3 mps 723 mmHg 41%
    05:00 +23°C° 0 mm 2 mps 723 mmHg 42%
    06:00 +25°C° 0 mm 2 mps 723 mmHg 37%
    07:00 +27°C° 0 mm 2 mps 723 mmHg 33%
    08:00 +29°C° 0 mm 2 mps 723 mmHg 28%
    09:00 +30°C° 0 mm 2 mps 723 mmHg 26%
    10:00 +32°C° 0 mm 2 mps 723 mmHg 23%
    11:00 +34°C° 0 mm 2 mps 723 mmHg 20%
    12:00 +35°C° 0 mm 3 mps 723 mmHg 18%
    13:00 +37°C° 0 mm 4 mps 723 mmHg 16%
    14:00 +39°C° 0 mm 5 mps 722 mmHg 14%
    15:00 +39°C° 0 mm 5 mps 723 mmHg 13%
    16:00 +39°C° 0 mm 5 mps 723 mmHg 13%
    17:00 +39°C° 0 mm 5 mps 723 mmHg 12%
    18:00 +36°C° 0 mm 5 mps 723 mmHg 14%
    19:00 +34°C° 0 mm 4 mps 723 mmHg 15%
    20:00 +32°C° 0 mm 4 mps 723 mmHg 16%
    21:00 +30°C° 0 mm 3 mps 723 mmHg 18%
    22:00 +29°C° 0 mm 3 mps 723 mmHg 20%
    23:00 +27°C° 0 mm 2 mps 723 mmHg 22%

    Tomorrow, 17 June, Monday

    Time Temperature Precipitation Wind Pressure Humidity
    00:00 +26°C° 0 mm 2 mps 722 mmHg 24%
    01:00 +26°C° 0 mm 2 mps 722 mmHg 26%
    02:00 +25°C° 0 mm 2 mps 722 mmHg 28%
    03:00 +24°C° 0 mm 2 mps 722 mmHg 29%
    04:00 +24°C° 0 mm 2 mps 722 mmHg 30%
    05:00 +23°C° 0 mm 2 mps 722 mmHg 31%
    06:00 +25°C° 0 mm 3 mps 722 mmHg 28%
    07:00 +27°C° 0 mm 3 mps 722 mmHg 25%
    08:00 +29°C° 0 mm 3 mps 722 mmHg 22%
    09:00 +31°C° 0 mm 3 mps 722 mmHg 19%
    10:00 +32°C° 0 mm 2 mps 722 mmHg 17%
    11:00 +35°C° 0 mm 2 mps 722 mmHg 14%
    12:00 +36°C° 0 mm 2 mps 722 mmHg 13%
    13:00 +37°C° 0 mm 2 mps 722 mmHg 12%
    14:00 +38°C° 0 mm 2 mps 722 mmHg 11%
    15:00 +38°C° 0 mm 2 mps 722 mmHg 11%
    16:00 +38°C° 0 mm 3 mps 721 mmHg 11%
    17:00 +38°C° 0 mm 3 mps 721 mmHg 10%
    18:00 +36°C° 0 mm 2 mps 721 mmHg 13%
    19:00 +34°C° 0 mm 2 mps 721 mmHg 15%
    20:00 +31°C° 0 mm 2 mps 721 mmHg 18%
    21:00 +30°C° 0 mm 2 mps 721 mmHg 20%
    22:00 +29°C° 0 mm 2 mps 721 mmHg 22%
    23:00 +28°C° 0 mm 2 mps 721 mmHg 25%

    Day after tomorrow, 18 June, Tuesday

    Time Temperature Precipitation Wind Pressure Humidity
    00:00 +27°C° 0 mm 2 mps 721 mmHg 27%
    01:00 +26°C° 0 mm 2 mps 721 mmHg 29%
    02:00 +25°C° 0 mm 2 mps 720 mmHg 31%
    03:00 +25°C° 0 mm 2 mps 720 mmHg 32%
    04:00 +24°C° 0 mm 2 mps 721 mmHg 32%
    05:00 +24°C° 0 mm 2 mps 721 mmHg 33%
    06:00 +26°C° 0 mm 2 mps 721 mmHg 29%
    07:00 +28°C° 0 mm 2 mps 721 mmHg 26%
    08:00 +30°C° 0 mm 2 mps 721 mmHg 23%
    09:00 +32°C° 0 mm 2 mps 721 mmHg 20%
    10:00 +34°C° 0 mm 2 mps 721 mmHg 18%
    11:00 +36°C° 0 mm 2 mps 721 mmHg 16%
    12:00 +37°C° 0 mm 2 mps 721 mmHg 15%
    13:00 +38°C° 0 mm 2 mps 721 mmHg 13%
    14:00 +39°C° 0 mm 3 mps 721 mmHg 12%
    15:00 +39°C° 0 mm 3 mps 721 mmHg 12%
    16:00 +39°C° 0 mm 3 mps 721 mmHg 12%
    17:00 +40°C° 0 mm 4 mps 720 mmHg 12%
    18:00 +37°C° 0 mm 3 mps 721 mmHg 13%
    19:00 +35°C° 0 mm 3 mps 721 mmHg 15%
    20:00 +33°C° 0 mm 3 mps 721 mmHg 17%
    21:00 +31°C° 0 mm 3 mps 721 mmHg 21%
    22:00 +29°C° 0 mm 3 mps 722 mmHg 25%
    23:00 +28°C° 0 mm 3 mps 722 mmHg 28%

    19 June, Wednesday

    Time Temperature Precipitation Wind Pressure Humidity
    00:00 +27°C° 0 mm 3 mps 721 mmHg 30%
    01:00 +26°C° 0 mm 3 mps 721 mmHg 31%
    02:00 +26°C° 0 mm 2 mps 720 mmHg 33%
    03:00 +25°C° 0 mm 3 mps 720 mmHg 33%
    04:00 +25°C° 0 mm 3 mps 720 mmHg 34%
    05:00 +24°C° 0 mm 3 mps 720 mmHg 35%
    06:00 +26°C° 0 mm 3 mps 721 mmHg 31%
    07:00 +29°C° 0 mm 3 mps 721 mmHg 27%
    08:00 +31°C° 0 mm 3 mps 721 mmHg 23%
    09:00 +33°C° 0 mm 3 mps 721 mmHg 21%
    10:00 +35°C° 0 mm 2 mps 721 mmHg 19%
    11:00 +36°C° 0 mm 2 mps 721 mmHg 17%
    12:00 +37°C° 0 mm 2 mps 721 mmHg 16%
    13:00 +38°C° 0 mm 2 mps 720 mmHg 14%
    14:00 +39°C° 0 mm 3 mps 720 mmHg 13%
    15:00 +39°C° 0 mm 3 mps 720 mmHg 13%
    16:00 +39°C° 0 mm 3 mps 720 mmHg 13%
    17:00 +39°C° 0 mm 3 mps 720 mmHg 13%
    18:00 +37°C° 0 mm 3 mps 721 mmHg 15%
    19:00 +35°C° 0 mm 3 mps 721 mmHg 16%
    20:00 +33°C° 0 mm 3 mps 721 mmHg 17%
    21:00 +31°C° 0 mm 3 mps 721 mmHg 20%
    22:00 +30°C° 0 mm 3 mps 721 mmHg 22%
    23:00 +29°C° 0 mm 3 mps 721 mmHg 24%

    20 June, Thursday

    Time Temperature Precipitation Wind Pressure Humidity
    00:00 +28°C° 0 mm 3 mps 721 mmHg 26%
    01:00 +27°C° 0 mm 3 mps 720 mmHg 28%
    02:00 +26°C° 0 mm 3 mps 720 mmHg 30%
    03:00 +26°C° 0 mm 3 mps 720 mmHg 31%
    04:00 +25°C° 0 mm 3 mps 720 mmHg 32%
    05:00 +25°C° 0 mm 3 mps 720 mmHg 32%
    06:00 +27°C° 0 mm 3 mps 720 mmHg 29%
    07:00 +29°C° 0 mm 3 mps 720 mmHg 25%
    08:00 +31°C° 0 mm 3 mps 721 mmHg 21%
    09:00 +33°C° 0 mm 3 mps 721 mmHg 19%
    10:00 +35°C° 0 mm 3 mps 720 mmHg 16%
    11:00 +37°C° 0 mm 2 mps 720 mmHg 14%
    12:00 +38°C° 0 mm 2 mps 720 mmHg 13%
    13:00 +38°C° 0 mm 2 mps 720 mmHg 12%
    14:00 +39°C° 0 mm 2 mps 720 mmHg 12%
    15:00 +39°C° 0 mm 3 mps 720 mmHg 12%
    16:00 +41°C° 0 mm 4 mps 720 mmHg 12%
    17:00 +41°C° 0 mm 5 mps 720 mmHg 12%
    18:00 +38°C° 0 mm 4 mps 721 mmHg 14%
    19:00 +36°C° 0 mm 4 mps 721 mmHg 15%
    20:00 +34°C° 0 mm 4 mps 721 mmHg 16%
    21:00 +33°C° 0 mm 4 mps 721 mmHg 18%
    22:00 +31°C° 0 mm 3 mps 721 mmHg 19%
    23:00 +29°C° 0 mm 2 mps 721 mmHg 21%

    21 June, Friday

    Time Temperature Precipitation Wind Pressure Humidity
    00:00 +28°C° 0 mm 3 mps 720 mmHg 23%
    01:00 +27°C° 0 mm 3 mps 720 mmHg 25%
    02:00 +26°C° 0 mm 3 mps 720 mmHg 28%
    03:00 +26°C° 0 mm 3 mps 720 mmHg 29%
    04:00 +26°C° 0 mm 3 mps 720 mmHg 30%
    05:00 +25°C° 0 mm 3 mps 720 mmHg 31%
    06:00 +27°C° 0 mm 3 mps 721 mmHg 28%
    07:00 +29°C° 0 mm 3 mps 721 mmHg 25%
    08:00 +31°C° 0 mm 3 mps 721 mmHg 22%
    09:00 +34°C° 0 mm 2 mps 721 mmHg 20%
    10:00 +36°C° 0 mm 2 mps 721 mmHg 17%
    11:00 +37°C° 0 mm 1 mps 721 mmHg 15%
    12:00 +38°C° 0 mm 2 mps 721 mmHg 14%
    13:00 +39°C° 0 mm 3 mps 721 mmHg 14%
    14:00 +40°C° 0 mm 3 mps 720 mmHg 13%
    15:00 +41°C° 0 mm 5 mps 720 mmHg 13%
    16:00 +41°C° 0 mm 6 mps 720 mmHg 12%
    17:00 +41°C° 0 mm 7 mps 720 mmHg 12%
    18:00 +39°C° 0 mm 6 mps 721 mmHg 13%
    19:00 +38°C° 0 mm 6 mps 721 mmHg 14%
    20:00 +35°C° 0 mm 6 mps 721 mmHg 15%
    21:00 +34°C° 0 mm 5 mps 721 mmHg 17%
    22:00 +33°C° 0 mm 4 mps 721 mmHg 19%
    23:00 +31°C° 0 mm 3 mps 721 mmHg 20%
    Show more